Location: Drocourt
(49.0571°N, 1.7669°E)
Time: 07:06:03
(UTC+00:00)

Gblst 52 Del rocket - Pass Details

Date: 09 February 2023
Orbit: 805 x 1364 km, 51.5° (Epoch: 21 March)

Event Time Altitude Azimuth Distance (km) Brightness Sun altitude
Rises 19:00:10 0° 281° (W) 3,397 8.9 -19.6°
Reaches altitude 10° 19:02:43 10° 284° (WNW) 2,424 7.7 -20.0°
Maximum altitude 19:08:16 72° 8° (N) 850 4.1 -20.9°
Enters shadow 19:09:58 45° 79° (E) 1,098 4.3 -21.2°
